Flag for U.S.A. Weather past 2 weeks in Spartanburg, South Carolina, U.S.A.

Now
81 °F

Warm.


Feels Like: 83 °F
Forecast: 66 / 89 °F
Wind: 5 mph from Southwest

Location: Spartanburg Memorial

Current Time: Jul 1, 2015 at 11:49:22 AM

Latest Report: Jul 1, 2015 at 11:15 AM


Visibility: 10 mi

Pressure: 30.00 "Hg

Humidity: 66%

Dew point: 68 °F

Location of SpartanburgLocation

Historic Weather in Spartanburg — Graph

°F

Spartanburg temperature yesterday

Maximum temperature yesterday: 91 °F (at 1:55 PM)
Minimum temperature yesterday: 72 °F (at 1:15 AM)
Average temperature yesterday: 77 °F

Past Weeks' High & Low Weather Summary

 TemperatureHumidityPressure
High99 °F (Jun 18, 4:55 PM)100% (Jun 19, 12:15 AM)30.14 "Hg (Jun 19, 12:15 AM)
Low63 °F (Jun 29, 5:55 AM)30% (Jun 22, 4:35 PM)29.80 "Hg (Jun 27, 3:15 PM)
Average81 °F67%30.01 "Hg
* Reported Jun 16 10:15 AM — Jul 1 10:55 AM, Spartanburg, Weather by CustomWeather, © 2015

Note: Actual official high and low records may vary slightly from our data, if they occured in-between our weather recording intervals... More about our weather records

Advertising

Spartanburg weather history for previous 24 hours

 ConditionsComfort  
Time TempWeatherWind HumidityBarometerVisibility
10:55 AM
Wed, Jul 1
81 °FWarm.6 mph66%30.00 "Hg10 mi
10:35 AM79 °FWarm.5 mph70%30.00 "Hg10 mi
10:15 AM79 °FWarm.5 mph70%30.00 "Hg10 mi
9:55 AM77 °FWarm.5 mph79%30.00 "Hg10 mi
9:35 AM73 °FMild.No wind83%30.00 "Hg10 mi
9:15 AM72 °FMild.3 mph94%30.00 "Hg10 mi
8:55 AM72 °FMild.5 mph94%30.00 "Hg10 mi
8:35 AM70 °FMild.5 mph94%29.99 "Hg10 mi
8:15 AM70 °FMild.No wind94%29.99 "Hg10 mi
7:55 AM70 °FMild.No wind94%29.98 "Hg10 mi
7:35 AM68 °FMild.No wind100%29.98 "Hg10 mi
7:15 AM68 °FFog.No wind100%29.98 "Hg5 mi
6:55 AM68 °FFog.No wind94%29.98 "Hg5 mi
6:35 AM68 °FFog.No wind94%29.97 "Hg5 mi
6:15 AM68 °FMild.No wind100%29.97 "Hg7 mi
5:55 AM68 °FMild.No wind100%29.96 "Hg7 mi
5:35 AM68 °FMild.No wind100%29.95 "Hg7 mi
5:15 AM68 °FMild.No wind100%29.95 "Hg7 mi
4:55 AM70 °FMild.No wind94%29.95 "Hg7 mi
4:35 AM70 °FMild.No wind94%29.95 "Hg7 mi
4:15 AM70 °FMild.No wind94%29.95 "Hg7 mi
3:55 AM70 °FMild.5 mph94%29.95 "Hg7 mi
3:35 AM70 °FMild.5 mph94%29.95 "Hg7 mi
2:55 AM70 °FMild.3 mph94%29.96 "Hg10 mi
2:35 AM70 °FMild.3 mph94%29.96 "Hg10 mi
2:15 AM70 °FMild.5 mph94%29.96 "Hg10 mi
1:55 AM72 °FMild.6 mph94%29.96 "Hg10 mi
1:35 AM72 °FMild.6 mph94%29.97 "Hg10 mi
1:15 AM72 °FMild.6 mph94%29.97 "Hg10 mi
12:55 AM70 °FMild.5 mph100%29.97 "Hg10 mi
12:35 AM72 °FMild.5 mph94%29.97 "Hg10 mi
11:55 PM
Tue, Jun 30
72 °FMild.3 mph94%29.98 "Hg10 mi
11:35 PM72 °FMild.3 mph88%29.97 "Hg10 mi
11:15 PM72 °FMild.6 mph88%29.99 "Hg10 mi
10:55 PM72 °FMild.5 mph88%29.98 "Hg10 mi
10:35 PM73 °FMild.5 mph83%29.97 "Hg10 mi
10:15 PM73 °FMild.3 mph83%29.96 "Hg10 mi
9:55 PM72 °FMild.3 mph88%29.96 "Hg10 mi
9:35 PM73 °FMild.No wind83%29.96 "Hg10 mi
9:15 PM73 °FMild.No wind83%29.95 "Hg10 mi
8:55 PM75 °FMild.No wind78%29.94 "Hg10 mi
8:35 PM75 °FMild.No wind78%29.93 "Hg10 mi
8:15 PM77 °FWarm.7 mph74%29.92 "Hg10 mi
7:55 PM77 °FWarm.7 mph74%29.91 "Hg10 mi
7:35 PM77 °FWarm.9 mph74%29.91 "Hg10 mi
7:15 PM77 °FWarm.8 mph74%29.91 "Hg10 mi
6:55 PM79 °FWarm.9 mph70%29.91 "Hg10 mi
6:35 PM79 °FWarm.9 mph70%29.92 "Hg10 mi
5:55 PM79 °FWarm.7 mph61%29.91 "Hg10 mi
5:35 PM81 °FWarm.9 mph58%29.91 "Hg10 mi
5:15 PM81 °FWarm.8 mph58%29.93 "Hg10 mi
4:55 PM81 °FWarm.8 mph62%29.94 "Hg10 mi
4:35 PM81 °FWarm.9 mph66%29.93 "Hg10 mi
4:15 PM79 °FWarm.8 mph74%29.92 "Hg10 mi
3:55 PM79 °FWarm.7 mph74%29.93 "Hg10 mi
3:35 PM77 °FLight rain. Cloudy.8 mph79%29.92 "Hg10 mi
3:15 PM82 °FRain. Cloudy.8 mph62%29.89 "Hg10 mi
2:55 PM86 °FWarm.12 mph49%29.91 "Hg10 mi
2:35 PM88 °FWarm.9 mph43%29.93 "Hg10 mi
2:15 PM91 °FHot.14 mph41%29.93 "Hg10 mi
1:55 PM91 °FHot.14 mph41%29.94 "Hg10 mi
12:55 PM90 °FHot.10 mph41%29.96 "Hg10 mi
12:35 PM90 °FHot.13 mph41%29.96 "Hg10 mi
11:55 AM88 °FWarm.7 mph46%29.95 "Hg10 mi
Weather by CustomWeather, © 2015

See weather overviewHow to use our weather pages